(490374) = 2009 JT9

Discovered at Kitt Peak on 2009-05-14 by Spacewatch.

Orbit

Orbit type: Hungaria

Note: WebGL enabled browser required.

epoch2023-02-25.0
epoch JD2460000.5
perihelion date2021-08-14.33895
perihelion JD2459440.83895
argument of perihelion (°)210.76673
ascending node (°)196.52691
inclination (°)20.88028
eccentricity0.0963007
perihelion distance (AU)1.7585593
Tisserand w.r.t. Jupiter3.8
ΔV w.r.t. Earth (km/sec)10.5
semimajor axis (AU)1.9459562
mean anomaly (°)203.20263
mean daily motion (°/day)0.36308160
aphelion distance (AU)2.133
period (years)2.71
P-vector [x]0.68779779
P-vector [y]0.71717665
P-vector [z]0.11221341
Q-vector [x]-0.71878691
Q-vector [y]0.69446042
Q-vector [z]-0.03271225
absolute magnitude18.25
phase slope0.15
uncertainty0
referenceMPO 745323
observations used164
oppositions6
arc length (days)4611
first opposition used2007
last opposition used2020
residual rms (arc-secs)0.85
perturbers coarse indicatorM-v
perturbers precise indicator003Ek
first observation date used2007-11-09.0
last observation date used2020-06-24.0
computer nameMPCLINUX
JD of orbit computation2457872.427288
perihelion JD uncertainty (days)2.2911E-04
argument of perihelion uncertainty (°)7.6793E-05
ascending node uncertainty (°)1.4167E-05
inclination uncertainty (°)1.3336E-05
eccentricity uncertainty 1.4496E-07
perihelion distance uncertainty (AU)2.7906E-07
Minimum Orbit Intersection Distances (in AU)
for orbit epoch: 2460000.5, reference: E2023-HL2
Mercury1.4366
Venus1.04136
Earth0.77579
Mars0.35248
Jupiter3.16572
Saturn7.38134
Uranus16.4073
Neptune28.0756

Observations

169 total observations over interval: 2007 11 09.14982 – 2020 06 24.41994
These data are available for download (format description).

Date (UT) J2000 RA J2000 Dec Magn Location Ref
2007 11 09.14982 23 19 39.18 -04 31 22.6 20.6 V G96 – Mt. Lemmon Survey MPS 289309
2007 11 09.15662 23 19 39.46 -04 31 27.8 20.5 V G96 – Mt. Lemmon Survey MPS 289309
2007 11 09.16323 23 19 39.75 -04 31 32.5 20.5 V G96 – Mt. Lemmon Survey MPS 289309
2007 11 09.16982 23 19 40.00 -04 31 37.5 20.7 V G96 – Mt. Lemmon Survey MPS 289309
2007 11 17.08096 23 26 28.75 -05 55 10.3 21.2 V G96 – Mt. Lemmon Survey MPS 289309
2007 11 17.08746 23 26 29.11 -05 55 13.8 20.8 V G96 – Mt. Lemmon Survey MPS 289309
2007 11 17.09404 23 26 29.47 -05 55 16.9 21.2 V G96 – Mt. Lemmon Survey MPS 289309
2007 11 17.10059 23 26 29.83 -05 55 20.9 21.0 V G96 – Mt. Lemmon Survey MPS 289309
2009 03 19.41841 15 01 09.22 -11 14 16.5 20.9 V G96 – Mt. Lemmon Survey MPS 289309
2009 03 19.42529 15 01 09.15 -11 14 10.9 20.9 V G96 – Mt. Lemmon Survey MPS 289309
2009 03 19.43218 15 01 09.12 -11 14 05.3 20.8 V G96 – Mt. Lemmon Survey MPS 289309
2009 05 01.31741 14 32 42.46 +00 45 00.2 20.6 V G96 – Mt. Lemmon Survey MPS 289309
2009 05 01.32644 14 32 41.89 +00 45 08.2 20.4 V G96 – Mt. Lemmon Survey MPS 289309
2009 05 01.33552 14 32 41.35 +00 45 16.8 20.4 V G96 – Mt. Lemmon Survey MPS 289309
2009 05 01.34427 14 32 40.77 +00 45 25.8 20.3 V G96 – Mt. Lemmon Survey MPS 289309
2009 05 14.20338 14 20 30.77 +03 46 33.5 20.9 V 691 – Steward Observatory, Kitt Peak-Spacewatch MPS 287063
2009 05 14.21994 14 20 29.88 +03 46 45.3 20.8 V 691 – Steward Observatory, Kitt Peak-Spacewatch MPS 287063
2009 05 14.24139 14 20 28.70 +03 47 00.6 20.5 V 691 – Steward Observatory, Kitt Peak-Spacewatch MPS 287063
2009 05 16.20548 14 18 50.42 +04 09 31.3 20.7 V 691 – Steward Observatory, Kitt Peak-Spacewatch MPS 287063
2009 05 16.22207 14 18 49.61 +04 09 42.2 21.2 V 691 – Steward Observatory, Kitt Peak-Spacewatch MPS 287063
2009 05 16.23887 14 18 48.70 +04 09 53.4 20.5 V 691 – Steward Observatory, Kitt Peak-Spacewatch MPS 287063
2015 10 13.22707 20 53 12.237 +00 44 14.41 20.8 w F51 – Pan-STARRS 1, Haleakala MPS 631429
2015 10 13.23917 20 53 12.890 +00 44 02.70 20.8 w F51 – Pan-STARRS 1, Haleakala MPS 631429
2015 10 13.25128 20 53 13.545 +00 43 51.23 21.0 w F51 – Pan-STARRS 1, Haleakala MPS 631429
2015 10 13.26341 20 53 14.187 +00 43 39.63 20.9 w F51 – Pan-STARRS 1, Haleakala MPS 631429
2017 04 05.37513 12 56 21.69 -06 48 58.5 19.8 V G96 – Mt. Lemmon Survey MPS 785257
2017 04 05.37938 12 56 21.48 -06 48 54.5 20.3 V G96 – Mt. Lemmon Survey MPS 785257
2017 04 05.38365 12 56 21.23 -06 48 49.3 19.4 V G96 – Mt. Lemmon Survey MPS 785257
2017 04 05.38796 12 56 20.95 -06 48 43.8 20.2 V G96 – Mt. Lemmon Survey MPS 785257
2017 04 06.18625 12 55 36.38 -06 33 04.6 20.0 V G96 – Mt. Lemmon Survey MPS 785257
2017 04 06.19208 12 55 36.04 -06 32 59.0 20.1 V G96 – Mt. Lemmon Survey MPS 785257
2017 04 06.19387 12 55 35.94 -06 32 56.5 20.6 V G96 – Mt. Lemmon Survey MPS 785257
2017 04 06.19563 12 55 35.88 -06 32 55.2 19.6 V G96 – Mt. Lemmon Survey MPS 785257
2017 04 07.29267 12 54 33.90 -06 11 24.7 19.3 V G96 – Mt. Lemmon Survey MPS 785257
2017 04 07.30768 12 54 32.91 -06 11 07.1 20.1 V G96 – Mt. Lemmon Survey MPS 785257
2017 04 07.32251 12 54 32.08 -06 10 49.9 20.2 V G96 – Mt. Lemmon Survey MPS 785257
2017 04 07.33725 12 54 31.20 -06 10 31.8 19.8 V G96 – Mt. Lemmon Survey MPS 785257
2017 04 19.27934 12 44 06.42 -02 24 47.5 20.0 V G96 – Mt. Lemmon Survey MPS 792908
2017 04 19.28361 12 44 06.22 -02 24 42.7 20.0 V G96 – Mt. Lemmon Survey MPS 792908
2017 04 19.28788 12 44 05.98 -02 24 38.4 20.2 V G96 – Mt. Lemmon Survey MPS 792908
2017 04 19.29214 12 44 05.81 -02 24 33.9 20.5 V G96 – Mt. Lemmon Survey MPS 792908
2017 04 28.37210 12 37 58.307 +00 05 17.73 20.9 w F51 – Pan-STARRS 1, Haleakala MPS 794816
2017 04 28.38424 12 37 57.869 +00 05 28.67 20.8 w F51 – Pan-STARRS 1, Haleakala MPS 794816
2017 05 15.18235 12 32 46.60 +03 25 55.2 21.6 V G96 – Mt. Lemmon Survey MPS 797912
2017 05 15.18662 12 32 46.63 +03 25 57.8 20.8 V G96 – Mt. Lemmon Survey MPS 797912
2017 05 15.19090 12 32 46.59 +03 25 59.5 21.3 V G96 – Mt. Lemmon Survey MPS 797912
2017 05 15.19518 12 32 46.55 +03 26 02.1 22.4 V G96 – Mt. Lemmon Survey MPS 797912
2018 09 10.34692 02 29 22.03 +16 53 08.6 20.5 G G96 – Mt. Lemmon Survey MPS 918978
2018 09 10.35208 02 29 22.18 +16 53 04.4 20.3 G G96 – Mt. Lemmon Survey MPS 918978
2018 09 10.35722 02 29 22.35 +16 53 00.2 20.5 G G96 – Mt. Lemmon Survey MPS 918978
2018 09 10.36236 02 29 22.50 +16 52 55.8 20.3 G G96 – Mt. Lemmon Survey MPS 918978
2018 09 18.33325 02 32 41.32 +14 48 22.5 19.8 G 703 – Catalina Sky Survey MPS 921827
2018 09 18.34019 02 32 41.38 +14 48 15.3 20.3 G 703 – Catalina Sky Survey MPS 921827
2018 09 18.34543 02 32 41.54 +14 48 10.5 20.7 G 703 – Catalina Sky Survey MPS 921827
2018 09 18.35067 02 32 41.57 +14 48 04.0 20.1 G 703 – Catalina Sky Survey MPS 921827
2018 10 04.41315 02 32 04.072 +09 07 03.34 19.8 w F52 – Pan-STARRS 2, Haleakala MPS 924114
2018 10 04.43789 02 32 03.474 +09 06 27.03 19.7 w F52 – Pan-STARRS 2, Haleakala MPS 924114
2018 10 04.45029 02 32 03.171 +09 06 08.85 19.7 w F52 – Pan-STARRS 2, Haleakala MPS 924114
2018 10 12.73269 02 28 05.80 +05 32 52.5 19.8 R D29 – Purple Mountain Observatory, XuYi Station MPS 927297
2018 10 12.73357 02 28 05.75 +05 32 50.9 19.1 R D29 – Purple Mountain Observatory, XuYi Station MPS 927297
2018 10 12.74683 02 28 05.24 +05 32 29.7 19.8 R D29 – Purple Mountain Observatory, XuYi Station MPS 927297
2018 10 12.74772 02 28 05.18 +05 32 28.2 19.6 R D29 – Purple Mountain Observatory, XuYi Station MPS 927297
2018 10 12.76097 02 28 04.66 +05 32 07.3 19.5 R D29 – Purple Mountain Observatory, XuYi Station MPS 927297
2018 10 12.76186 02 28 04.61 +05 32 06.3 19.6 R D29 – Purple Mountain Observatory, XuYi Station MPS 927297
2018 10 18.35103 02 24 21.16 +03 01 50.8 19.6 G G96 – Mt. Lemmon Survey MPS 931115
2018 10 18.35615 02 24 20.91 +03 01 42.6 19.4 G G96 – Mt. Lemmon Survey MPS 931115
2018 10 18.36126 02 24 20.66 +03 01 34.2 19.4 G G96 – Mt. Lemmon Survey MPS 931115
2018 10 18.36637 02 24 20.42 +03 01 26.0 19.5 G G96 – Mt. Lemmon Survey MPS 931115
2018 10 19.531025 02 23 38.810 +02 28 02.50 19.2 G C57 – TESS MPS 1877326
2018 10 19.656024 02 23 32.458 +02 24 35.21 19.3 G C57 – TESS MPS 1877326
2018 10 20.093524 02 23 07.406 +02 12 24.30 19.1 G C57 – TESS MPS 1877326
2018 10 20.114358 02 23 06.658 +02 11 52.33 19.3 G C57 – TESS MPS 1877326
2018 10 22.114357 02 21 11.242 +01 18 24.91 19.3 G C57 – TESS MPS 1877326
2018 10 22.239357 02 21 04.102 +01 15 02.34 19.1 G C57 – TESS MPS 1877326
2018 10 22.260191 02 21 03.151 +01 14 31.78 19.0 G C57 – TESS MPS 1877326
2018 10 22.614357 02 20 43.128 +01 05 19.79 19.0 G C57 – TESS MPS 1877326
2018 10 22.697690 02 20 38.350 +01 03 11.12 19.1 G C57 – TESS MPS 1877326
2018 10 22.739357 02 20 36.710 +01 01 58.94 19.2 G C57 – TESS MPS 1877326
2018 10 23.489357 02 19 54.650 +00 42 49.10 19.2 G C57 – TESS MPS 1877326
2018 10 23.614357 02 19 47.863 +00 39 31.10 18.9 G C57 – TESS MPS 1877326
2018 10 23.968523 02 19 29.182 +00 30 28.30 19.0 G C57 – TESS MPS 1877326
2018 10 24.322690 02 19 10.320 +00 21 32.29 18.9 G C57 – TESS MPS 1877326
2018 10 24.468523 02 19 02.810 +00 17 42.32 19.3 G C57 – TESS MPS 1877326
2018 10 24.489357 02 19 01.536 +00 17 10.90 19.1 G C57 – TESS MPS 1877327
2018 10 24.531023 02 18 59.366 +00 16 10.45 19.1 G C57 – TESS MPS 1877327
2018 10 25.760190 02 17 56.038 -00 14 39.19 19.3 G C57 – TESS MPS 1877327
2018 10 25.947690 02 17 46.474 -00 19 23.84 19.1 G C57 – TESS MPS 1877327
2018 10 27.65298 02 17 04.80 -01 03 12.8 19.6 R D29 – Purple Mountain Observatory, XuYi Station MPS 937095
2018 10 27.66712 02 17 04.06 -01 03 34.0 19.3 R D29 – Purple Mountain Observatory, XuYi Station MPS 937095
2018 10 27.68126 02 17 03.34 -01 03 54.9 20.0 R D29 – Purple Mountain Observatory, XuYi Station MPS 937095
2018 11 01.29975 02 13 18.33 -02 56 43.9 20.2 G 703 – Catalina Sky Survey MPS 937095
2018 11 01.30503 02 13 18.04 -02 56 50.9 19.2 G 703 – Catalina Sky Survey MPS 937095
2018 11 01.31032 02 13 17.84 -02 56 58.9 19.3 G 703 – Catalina Sky Survey MPS 937095
2018 11 01.31560 02 13 17.53 -02 57 06.5 19.5 G 703 – Catalina Sky Survey MPS 937095
2018 11 01.62332 02 13 02.90 -03 04 18.7 19.3 R D29 – Purple Mountain Observatory, XuYi Station MPS 937095
